Погода в Санинской

Россия / Вологодская область     59°36′21″N   36°03′11″E
темп.,
°C
ветер,
м/с
пор.,
м/с
влажн.,
%
обл.,
%
осадки,
мм/ч
давл.,
гПа
погр.,
м
28 января, чт
чт2800:00−4юз269773 0.1 1004167
03:00−7юз129859 0.1 100521
06:00−4ю129795 0.2 100669
09:00−8ююв119865 0.3 100721
12:00−5юв249780 0.0 1008284
15:00−4вюв249690 0.1 1008373
18:00−4в2696100 0.1 1007328
21:00−4в3797100 0.4 1005341
29 января, пт
пт2900:00−3всв3796100 1.1 1003381
03:00−2в3697100 1.8 1001267
06:00+1вюв4999100 0.9 999367
09:00−2вюв41097100 1.5 997450
12:00−1юв51096100 1.1 996538
15:000вюв4994100 1.5 994523
18:00−1вюв51293100 0.4 994665
21:00−1ююв51095100 1.2 993787
30 января, сб
сб3000:00−4юв4119262 0.3 992528
03:00−5юв4109581 0.4 992544
06:00−4юв3995100 0.2 991463
09:00−6юв3896100 0.3 990320
12:00−5юв4892100 0.0 991494
15:00−5ююв4790100 0.1 990656
18:00−6юв4995100 0.3 990493
21:00−7ююв389599 0.6 991348
31 января, вс
вс3100:00−6ююв3896100 0.5 991400
03:00−7ю389599 0.9 992368
06:00−9ююв389699 0.1 991296
09:00−9ююв3796100 0.3 992273
12:00−8ююв2594100 0.1 992286
15:00−7юв2396100 0.1 991254
18:00−11ююв1298100 0.0 99221
21:00−11ююз129899 0.1 99221
1 февраля, пн
пн100:00−12юз229771 0.0 99421
03:00−12юз249764 0.1 995103
06:00−8юз399588 0.1 996357
09:00−8юз4119490 0.1 998506
12:00−6юз51090100 0.1 1001708
15:00−5юз4989100 0.1 1002811
18:00−8ю379692 0.0 1004158
21:00−7ююз389696 0.3 1005297